Wind_Speed
10 11 13 14 15 17 18 19 20 21 22 23 23 24 25 27 28 29 29 29 30 31 32 32 33 34 34 35 35 35 35 36 37 37 37 36 36 35 34 34 33 32 31
16 18 19 20 21 24 25 26 27 28 29 31 30 31 32 33 34 35 35 34 33 33 35 36 36 37 37 37 38 38 38 39 39 39 40 41 41 40 40 39 38 37 36
22 25 26 27 28 30 31 32 32 33 34 36 35 35 36 36 37 38 39 39 37 36 37 39 40 41 41 41 41 41 41 41 41 41 42 43 43 44 44 44 44 43 43
25 26 27 29 31 32 34 35 35 35 35 37 38 37 37 37 37 38 39 38 39 40 40 41 42 43 45 45 45 44 43 43 43 44 45 45 47 46 45 45 45 45 46
24 25 27 29 31 32 34 36 36 38 38 38 40 39 40 40 40 39 40 41 43 44 44 44 45 46 48 49 49 48 48 47 46 46 46 47 47 47 49 50 49 48 48
23 25 26 27 28 28 30 32 34 36 38 39 41 41 41 41 41 40 40 42 44 46 48 50 50 51 50 51 52 51 50 50 50 49 49 48 48 48 48 48 49 50 50
23 24 26 27 28 29 31 33 35 37 37 40 45 46 46 45 45 45 45 45 45 45 45 44 44 47 49 50 52 53 53 52 51 51 51 50 50 49 48 48 47 47 47
23 24 25 27 29 30 32 35 39 41 41 42 47 50 54 52 50 50 49 48 48 48 47 47 44 45 45 46 48 47 49 52 53 53 53 52 52 50 48 49 49 47 46
23 24 27 29 32 35 37 39 41 44 46 44 45 49 55 57 58 55 54 54 52 51 50 50 49 49 46 45 44 44 42 44 48 51 53 55 55 55 54 52 50 49 48
24 26 29 32 35 38 40 42 43 45 48 50 48 45 47 53 59 68 61 60 57 56 54 53 53 54 54 53 52 48 44 44 44 46 49 51 53 54 55 54 54 53 51
28 30 33 36 38 41 43 45 46 46 48 51 52 55 55 54 54 58 68 65 62 60 58 57 56 54 55 58 57 55 54 53 51 46 46 51 52 51 51 51 51 54 53
31 34 38 41 42 44 46 47 47 48 49 50 52 53 55 57 57 56 59 63 63 62 60 59 57 56 54 52 54 57 55 55 54 53 55 57 49 42 43 49 48 50 51
35 39 42 44 46 46 46 45 45 45 46 47 47 49 49 50 51 53 55 59 60 60 59 57 56 55 52 50 48 48 49 49 49 49 50 51 55 56 51 56 54 49 49
40 45 47 45 43 43 43 44 44 45 46 48 48 49 51 51 52 53 54 55 59 59 58 55 53 52 53 52 51 51 51 51 52 51 51 53 52 53 56 55 53 66 68
46 45 43 42 43 44 44 45 45 45 45 47 47 48 49 50 51 53 53 53 51 52 59 53 56 53 53 52 51 51 50 49 50 51 51 51 52 54 55 56 55 55 66
49 46 42 42 42 43 44 45 45 45 47 49 50 52 53 54 55 55 54 53 52 51 55 57 57 58 57 54 52 52 51 50 49 49 52 51 51 49 51 53 56 57 59
47 42 42 43 44 44 44 46 48 51 53 55 57 58 58 57 56 55 55 55 54 53 55 61 58 60 61 60 59 56 55 55 54 54 53 52 51 49 50 50 51 53 55
44 43 43 43 44 45 47 51 54 56 59 61 61 61 59 58 57 56 55 56 58 58 59 61 62 62 63 63 63 63 60 58 59 57 57 56 51 47 46 46 48 47 50
42 42 43 44 46 49 52 55 58 61 61 61 60 59 57 56 55 54 53 54 56 57 59 58 61 62 63 63 63 62 61 60 60 61 61 59 57 48 44 44 44 46 47
42 43 44 47 50 52 56 58 61 61 60 59 57 55 53 52 53 53 53 54 55 56 56 56 56 58 59 59 58 59 60 57 59 60 62 59 56 49 44 43 45 47 45
43 45 47 50 52 55 58 60 60 60 59 57 55 53 52 51 50 48 48 48 48 48 45 44 49 50 51 51 50 48 51 51 51 51 53 52 50 43 42 41 42 46 47
44 47 50 53 55 56 58 58 58 59 57 56 55 53 52 49 45 42 41 42 41 37 39 41 42 48 48 45 43 41 35 38 40 37 40 43 35 34 33 36 36 37 43
47 50 52 54 56 58 59 59 58 59 57 55 53 51 47 42 41 42 43 43 42 42 43 45 46 45 46 44 41 36 37 44 41 41 40 42 31 32 30 30 29 31 35
50 52 54 56 58 59 60 59 57 56 54 52 48 44 41 41 42 43 43 42 43 42 41 40 42 44 44 39 38 40 41 42 42 37 39 44 31 30 26 28 27 30 33
51 52 55 58 58 58 58 55 54 54 52 48 43 41 39 42 43 42 35 48 47 41 39 38 38 38 35 32 31 33 33 36 40 36 39 41 30 29 25 21 21 24 28
52 53 56 57 57 57 53 51 50 49 46 43 43 42 40 41 43 37 45 50 47 41 40 38 35 31 29 27 27 29 33 38 39 41 35 33 28 29 26 22 22 22 23
Wind_Direction
286 282 280 280 284 284 286 289 290 290 290 289 290 290 288 284 281 279 277 273 273 272 270 268 268 269 269 269 269 267 265 263 262 259 258 257 257 257 258 258 258 259 259
268 272 272 275 276 279 281 284 287 287 288 286 285 284 282 282 280 279 277 275 274 274 273 272 270 269 269 268 269 268 266 265 264 261 261 259 257 256 257 258 259 259 260
269 269 271 273 275 277 281 285 287 290 290 287 286 284 283 283 284 284 281 278 276 276 277 276 274 273 272 271 269 268 267 267 266 263 261 261 261 259 258 257 258 259 259
276 280 282 282 281 282 285 287 288 288 290 291 290 288 286 286 286 284 283 282 278 278 276 275 275 276 274 271 270 270 269 267 267 267 265 262 260 260 261 261 260 260 260
284 286 287 287 288 290 290 289 290 291 294 296 295 292 290 289 288 287 285 282 280 280 280 278 275 273 273 273 274 274 273 271 270 269 269 269 268 264 261 261 259 259 260
291 294 296 299 300 301 300 298 297 297 299 299 296 297 295 294 292 289 286 282 279 278 277 276 276 275 271 269 269 269 269 270 269 269 267 266 266 266 266 264 261 260 257
293 297 300 302 304 304 303 302 301 301 300 300 298 295 293 291 289 289 288 286 285 283 280 278 276 273 272 269 268 269 268 267 267 267 266 264 264 265 266 265 264 262 259
298 302 303 303 304 303 303 302 302 301 301 302 302 301 299 295 294 290 290 289 288 286 284 284 283 278 273 271 268 265 265 265 265 265 264 261 261 262 262 263 265 264 263
302 303 305 307 307 307 305 304 304 304 302 300 301 303 303 301 300 298 296 294 293 290 287 286 284 282 279 276 272 268 266 263 262 263 262 261 261 261 260 259 260 260 261
306 307 307 307 306 305 304 304 303 302 302 302 300 296 295 298 300 299 296 295 292 290 288 285 283 282 281 280 279 273 271 269 263 260 259 259 260 259 260 260 260 259 257
307 305 304 303 303 303 303 303 302 301 301 300 300 300 297 295 294 293 293 294 291 291 289 287 285 281 280 281 280 277 274 272 269 265 258 255 255 257 258 258 258 257 255
301 302 303 304 305 306 306 304 303 301 300 298 298 298 298 300 300 298 295 292 293 294 294 292 290 289 287 284 281 282 281 276 273 272 270 264 254 256 253 254 254 251 253
306 308 309 310 310 310 310 308 306 305 303 302 303 302 302 302 302 301 300 299 298 295 292 291 292 291 288 283 279 278 278 277 275 272 269 267 269 264 260 251 251 247 247
316 317 316 316 316 315 314 313 311 310 309 307 306 304 303 303 302 302 301 302 298 295 294 294 291 289 286 284 281 278 275 274 275 274 272 269 268 268 269 266 263 258 245
321 325 322 321 319 317 314 312 309 308 307 306 305 304 303 302 301 301 300 300 301 297 293 290 291 288 286 283 281 279 277 274 272 273 273 273 271 268 266 266 264 265 261
323 323 321 319 318 316 314 312 311 310 309 308 307 306 306 304 303 302 301 299 298 296 294 291 288 288 287 285 283 281 278 276 276 276 274 271 270 271 268 264 262 263 263
322 321 321 319 317 315 314 312 311 310 310 309 309 308 307 306 303 302 300 298 297 296 295 291 291 287 286 285 282 280 280 278 278 278 276 273 270 266 266 269 263 261 259
322 321 319 317 315 314 313 313 313 313 312 311 311 310 309 307 304 301 299 297 296 296 297 297 290 287 287 286 283 281 281 279 277 275 276 277 274 268 263 259 263 260 259
319 318 317 316 316 316 316 315 314 313 312 313 313 312 310 309 307 305 302 300 298 296 296 298 294 291 290 289 286 282 280 279 278 277 275 275 275 272 263 255 252 257 259
318 318 318 318 317 316 315 315 314 315 316 316 315 314 312 310 308 305 304 302 301 300 300 299 298 298 295 293 293 292 286 284 279 277 275 277 275 271 263 254 249 246 256
319 319 318 317 316 318 318 318 318 317 316 316 314 313 312 310 309 307 304 303 303 304 304 302 300 299 298 296 294 295 293 291 285 284 282 280 279 271 262 256 250 247 245
318 318 317 318 320 321 322 320 318 317 316 315 316 315 313 313 311 309 309 308 308 308 304 300 297 297 297 296 295 294 297 301 301 293 291 280 278 269 257 252 247 244 243
318 318 320 321 323 323 320 318 318 317 317 318 317 316 317 318 317 316 315 314 310 313 311 307 303 301 296 300 295 287 291 291 286 292 291 287 279 270 257 251 245 239 240
320 321 321 323 323 321 320 320 319 318 318 318 318 318 321 318 318 319 319 312 315 311 309 304 300 302 303 303 296 289 290 288 289 291 289 290 288 278 261 247 243 240 241
321 321 322 323 323 322 321 322 320 318 318 319 318 320 322 318 319 322 313 313 314 314 309 308 306 304 303 301 297 294 294 292 294 294 291 290 289 280 270 262 255 250 246
321 323 322 323 323 323 323 322 320 319 322 321 319 324 322 319 318 316 313 316 316 315 314 314 312 308 306 304 300 296 295 295 297 298 294 289 283 280 276 265 263 257 247
Height
3124 3123 3122 3120 3118 3116 3114 3113 3110 3108 3107 3105 3103 3100 3098 3096 3094 3091 3090 3088 3086 3085 3084 3083 3082 3080 3079 3078 3076 3075 3075 3074 3073 3072 3072 3072 3072 3072 3072 3072 3072 3072 3073
3121 3119 3119 3117 3115 3112 3110 3108 3105 3103 3101 3098 3096 3093 3091 3089 3087 3085 3083 3081 3079 3077 3076 3074 3073 3071 3070 3069 3067 3066 3065 3064 3064 3063 3062 3062 3062 3062 3063 3063 3063 3064 3064
3116 3115 3114 3112 3109 3107 3104 3101 3099 3096 3094 3091 3089 3087 3084 3082 3080 3077 3075 3073 3072 3070 3068 3065 3063 3062 3061 3059 3058 3056 3055 3055 3054 3053 3053 3052 3051 3052 3052 3053 3053 3054 3054
3111 3109 3108 3106 3104 3102 3099 3096 3092 3089 3087 3083 3081 3079 3076 3075 3073 3070 3067 3065 3063 3061 3059 3058 3055 3052 3050 3048 3046 3045 3045 3045 3043 3042 3042 3041 3041 3041 3041 3042 3042 3042 3042
3107 3105 3103 3101 3098 3095 3093 3089 3086 3082 3080 3077 3072 3071 3068 3066 3064 3062 3059 3057 3054 3052 3049 3047 3045 3042 3040 3038 3036 3035 3034 3033 3033 3032 3031 3030 3030 3030 3030 3030 3030 3030 3030
3103 3100 3098 3095 3092 3089 3085 3081 3078 3075 3071 3067 3061 3059 3056 3053 3051 3050 3047 3044 3042 3040 3037 3033 3032 3029 3028 3025 3023 3021 3020 3019 3018 3018 3018 3018 3017 3017 3017 3017 3018 3018 3019
3098 3095 3092 3089 3086 3083 3079 3074 3070 3066 3063 3057 3050 3046 3043 3042 3041 3038 3035 3032 3031 3029 3024 3022 3019 3015 3013 3013 3011 3009 3007 3005 3005 3004 3004 3004 3004 3004 3004 3004 3004 3004 3005
3092 3089 3086 3082 3079 3075 3071 3067 3061 3057 3054 3050 3041 3035 3027 3027 3027 3023 3021 3019 3016 3014 3010 3008 3005 3003 3000 2998 2996 2995 2994 2992 2990 2990 2990 2989 2989 2990 2990 2990 2990 2990 2991
3086 3083 3079 3075 3071 3067 3063 3059 3054 3048 3043 3042 3037 3029 3017 3011 3006 3008 3006 3003 3002 2999 2997 2995 2992 2988 2985 2983 2981 2980 2979 2978 2977 2975 2974 2974 2973 2973 2974 2976 2976 2977 2977
3080 3076 3073 3068 3064 3060 3055 3050 3046 3040 3033 3026 3024 3024 3017 3007 2994 2981 2988 2986 2985 2983 2982 2980 2976 2973 2970 2968 2967 2965 2964 2963 2962 2960 2958 2958 2956 2956 2957 2959 2961 2962 2964
3074 3070 3066 3062 3057 3052 3046 3041 3036 3031 3025 3018 3011 3005 3002 2999 2994 2985 2966 2968 2967 2965 2964 2961 2960 2959 2956 2952 2950 2949 2947 2947 2944 2941 2941 2941 2940 2940 2941 2942 2943 2946 2948
3069 3064 3059 3054 3049 3043 3037 3032 3026 3020 3015 3010 3003 2997 2990 2982 2975 2969 2962 2956 2950 2949 2945 2943 2941 2939 2938 2937 2934 2930 2929 2928 2927 2926 2923 2921 2919 2918 2925 2925 2926 2928 2930
3060 3055 3049 3044 3037 3031 3025 3019 3015 3009 3004 2998 2992 2986 2980 2974 2966 2958 2949 2941 2934 2933 2930 2931 2925 2921 2919 2918 2916 2915 2912 2910 2909 2908 2908 2907 2905 2904 2902 2905 2906 2910 2912
3049 3043 3038 3032 3026 3021 3015 3009 3003 2998 2992 2987 2981 2976 2968 2962 2955 2948 2939 2930 2920 2917 2916 2916 2912 2907 2902 2899 2898 2896 2895 2894 2892 2891 2892 2891 2890 2889 2889 2889 2889 2890 2895
3040 3034 3027 3022 3016 3011 3005 2999 2994 2989 2983 2977 2971 2964 2958 2952 2944 2937 2929 2921 2910 2899 2898 2905 2893 2892 2886 2884 2881 2878 2877 2876 2875 2875 2874 2873 2875 2875 2875 2875 2874 2876 2876
3030 3023 3018 3012 3007 3002 2996 2990 2984 2978 2972 2966 2959 2952 2945 2938 2931 2923 2916 2909 2901 2890 2879 2887 2882 2875 2870 2868 2865 2862 2860 2859 2859 2857 2857 2855 2858 2857 2857 2858 2859 2860 2860
3020 3014 3008 3003 2998 2993 2987 2980 2975 2967 2960 2953 2945 2938 2931 2923 2916 2908 2901 2893 2886 2878 2866 2865 2862 2858 2853 2849 2848 2846 2844 2842 2841 2839 2839 2839 2839 2839 2841 2842 2842 2843 2845
3011 3004 3000 2995 2989 2983 2976 2969 2962 2954 2946 2937 2930 2922 2914 2906 2900 2893 2885 2877 2869 2863 2853 2844 2842 2839 2834 2831 2827 2825 2824 2823 2821 2821 2819 2818 2819 2822 2824 2826 2827 2827 2829
3003 2998 2992 2985 2979 2973 2966 2958 2950 2941 2932 2923 2915 2907 2900 2892 2885 2877 2870 2862 2854 2847 2840 2831 2823 2822 2817 2813 2807 2805 2804 2803 2802 2800 2799 2800 2800 2803 2807 2809 2810 2813 2814
2995 2989 2983 2976 2969 2962 2954 2946 2936 2927 2918 2911 2903 2895 2887 2879 2871 2864 2856 2848 2840 2832 2826 2819 2812 2807 2803 2799 2792 2786 2783 2784 2782 2780 2779 2780 2782 2784 2788 2791 2794 2796 2799
2986 2980 2973 2967 2959 2951 2942 2931 2922 2913 2906 2898 2891 2883 2874 2866 2859 2851 2842 2834 2827 2820 2813 2806 2799 2792 2788 2783 2779 2775 2767 2766 2764 2764 2762 2763 2762 2766 2770 2775 2778 2782 2784
2978 2972 2965 2956 2947 2939 2929 2919 2910 2901 2894 2885 2875 2869 2861 2853 2845 2838 2831 2824 2818 2810 2803 2795 2787 2780 2773 2769 2766 2761 2756 2752 2748 2754 2749 2745 2748 2748 2754 2757 2762 2766 2770
2970 2962 2953 2945 2936 2926 2918 2908 2899 2889 2879 2871 2862 2854 2848 2840 2833 2825 2818 2811 2806 2802 2795 2785 2775 2768 2760 2759 2753 2748 2745 2740 2738 2740 2736 2729 2735 2732 2738 2742 2747 2751 2754
2959 2950 2942 2933 2925 2916 2905 2895 2886 2877 2869 2860 2851 2844 2837 2829 2823 2815 2807 2799 2795 2790 2783 2774 2765 2757 2751 2747 2743 2738 2733 2729 2727 2728 2725 2716 2721 2720 2722 2726 2732 2736 2739
2949 2941 2931 2922 2913 2905 2894 2884 2874 2866 2858 2850 2842 2835 2829 2821 2813 2807 2800 2790 2782 2777 2770 2762 2755 2748 2743 2738 2733 2728 2725 2720 2716 2715 2712 2707 2709 2707 2709 2714 2719 2723 2726
2939 2931 2921 2911 2901 2893 2885 2875 2865 2855 2848 2839 2833 2826 2820 2812 2804 2797 2789 2779 2769 2763 2755 2749 2745 2739 2734 2729 2725 2721 2717 2711 2706 2700 2699 2698 2697 2697 2698 2703 2707 2710 2714